Weather History for Norfolk, NE

Change the Weather History Date:

Saturday, February 16, 2013

  Actual Average Record
Temperature  
Mean Temperature 23 °F 27 °F  
Max Temperature 38 °F 37 °F 68 °F (1981)
Min Temperature 7 °F 17 °F -22 °F (1936)
Degree Days  
Heating Degree Days 42 38  
Month to date heating degree days 529 638  
Since 1 July heating degree days 4411 4660  
Cooling Degree Days 0 0  
Month to date cooling degree days 0 0  
Year to date cooling degree days 0 0  
Moisture  
Dew Point 20 °F    
Average Humidity 75    
Maximum Humidity 91    
Minimum Humidity 59    
Precipitation  
Precipitation T in 0.02 in 0.60 in (1939)
Month to date precipitation 0.10 0.40  
Year to date precipitation 0.34 0.99  
Snow  
Snow T in 0.10 in - ()
Month to date snowfall 0.7 3.3  
Since 1 July snowfall 8.5 20.6  
Snow Depth T in    
Sea Level Pressure  
Sea Level Pressure 30.10 in    
Wind  
Wind Speed 8 mph (South)    
Max Wind Speed 21 mph    
Max Gust Speed 24 mph    
Visibility 10 miles    
Events Snow    
T = Trace of Precipitation, MM = Missing Value Source: NWS Daily Summary

Daily Weather History Graph

Daily Weather History Graph

Search for Another Location

Airport:

Trip Planner

Search our weather history database for the weather conditions in past years. The results will help you decide how hot, cold, wet, or windy it might be!

Date:

Astronomy

Feb. 16, 2013 Rise Set
Actual Time 7:23 AM CST 6:04 PM CST
Civil Twilight 6:55 AM CST 6:32 PM CST
Nautical Twilight 6:22 AM CST 7:05 PM CST
Astronomical Twilight 5:50 AM CST 7:37 PM CST
Moon 10:30 AM CST (2/16) 12:12 AM CST (2/16)
Length of Visible Light 11h 37m
Length of Day
10h 40m
Waxing Crescent, 39% of the Moon is Illuminated
Feb 16
Waxing Crescent
Feb 17
First Quarter
Feb 25
Full
Mar 4
Last Quarter
Mar 11
New

Hourly Weather History & Observations

Time (CST) Temp. Windchill Dew Point Humidity Pressure Visibility Wind Dir Wind Speed Gust Speed Precip Events Conditions
12:56 AM 9.0 °F 0.6 °F 6.1 °F 88% 30.36 in 10.0 mi SW 4.6 mph - N/A   Clear
1:56 AM 8.1 °F -2.0 °F 3.9 °F 83% 30.35 in 10.0 mi West 5.8 mph - N/A   Clear
2:56 AM 14.0 °F 5.1 °F 9.0 °F 80% 30.32 in 10.0 mi SW 5.8 mph - N/A   Clear
3:56 AM 15.1 °F 6.4 °F 10.0 °F 80% 30.29 in 10.0 mi SW 5.8 mph - N/A   Clear
5:56 AM 17.1 °F 5.8 °F 12.0 °F 81% 30.24 in 10.0 mi SSW 9.2 mph - N/A   Overcast
6:56 AM 18.0 °F 8.7 °F 12.9 °F 81% 30.21 in 10.0 mi SSW 6.9 mph - N/A   Overcast
7:56 AM 21.0 °F 8.6 °F 15.1 °F 78% 30.18 in 10.0 mi SSW 12.7 mph - N/A   Overcast
8:56 AM 23.0 °F 9.2 °F 17.1 °F 78% 30.17 in 10.0 mi SSW 17.3 mph - N/A   Overcast
9:56 AM 26.1 °F 14.5 °F 21.0 °F 81% 30.15 in 4.0 mi SSW 13.8 mph - 0.00 in Snow Light Snow
10:56 AM 28.0 °F 15.7 °F 23.0 °F 81% 30.13 in 10.0 mi South 17.3 mph - 0.00 in   Overcast
11:56 AM 28.9 °F 17.3 °F 23.0 °F 78% 30.12 in 10.0 mi South 16.1 mph - N/A   Overcast
12:36 PM 28.4 °F 18.0 °F 23.0 °F 80% 30.02 in 10.0 mi South 12.7 mph - N/A   Overcast
12:56 PM 30.0 °F 19.1 °F 24.1 °F 79% 30.09 in 10.0 mi South 15.0 mph - N/A   Overcast
1:32 PM 33.8 °F 23.9 °F 24.8 °F 70% 30.00 in 10.0 mi SSW 15.0 mph - N/A   Overcast
1:41 PM 33.8 °F 23.9 °F 24.8 °F 70% 29.99 in 10.0 mi South 15.0 mph - N/A   Overcast
1:53 PM 33.8 °F 25.8 °F 24.8 °F 70% 29.99 in 10.0 mi South 10.4 mph - N/A   Mostly Cloudy
1:56 PM 34.0 °F 26.0 °F 25.0 °F 70% 30.06 in 10.0 mi South 10.4 mph - N/A   Mostly Cloudy
2:05 PM 33.8 °F 24.3 °F 24.8 °F 70% 29.99 in 10.0 mi South 13.8 mph - N/A   Mostly Cloudy
2:56 PM 36.0 °F 28.5 °F 25.0 °F 64% 30.04 in 10.0 mi SSW 10.4 mph - N/A   Overcast
3:35 PM 37.4 °F 31.4 °F 26.6 °F 65% 29.97 in 10.0 mi South 8.1 mph - N/A   Overcast
3:56 PM 37.9 °F 35.5 °F 25.0 °F 60% 30.03 in 10.0 mi Variable 3.5 mph - N/A   Scattered Clouds
4:56 PM 37.0 °F 31.6 °F 25.0 °F 62% 30.03 in 10.0 mi South 6.9 mph - N/A   Overcast
5:56 PM 35.1 °F 30.1 °F 25.0 °F 67% 30.03 in 10.0 mi SE 5.8 mph - N/A   Overcast
6:56 PM 34.0 °F 29.8 °F 25.0 °F 70% 30.03 in 10.0 mi ESE 4.6 mph - N/A   Overcast
7:56 PM 33.1 °F 27.7 °F 25.0 °F 72% 30.02 in 10.0 mi SE 5.8 mph - N/A   Overcast
8:56 PM 28.9 °F 23.9 °F 24.1 °F 82% 30.02 in 10.0 mi ESE 4.6 mph - N/A   Scattered Clouds
9:56 PM 26.1 °F 20.5 °F 21.9 °F 84% 30.02 in 10.0 mi ESE 4.6 mph - N/A   Clear
10:56 PM 26.1 °F 20.5 °F 21.9 °F 84% 30.02 in 10.0 mi ESE 4.6 mph - N/A   Clear